Regional Weather Roundup
Issued by NWS Green Bay, WI

Home | Current Version | Previous Version | Graphics & Text | Print | Product List | Glossary Off
Versions: 1 2 3 4 5 6 7 8 9 10 11 12 13 14 15 16 17 18 19 20 21 22 23 24 25 26 27 28 29 30 31 32 33 34 35 36 37 38 39 40 41 42 43 44 45 46 47 48 49 50

647
ASUS43 KGRB 230700
RWRGRB

NORTH-CENTRAL AND NORTHEAST WISCONSIN REGIONAL WEATHER ROUNDUP
NATIONAL WEATHER SERVICE GREEN BAY WI
100 AM CST THU FEB 23 2017

WIZ005-009-010>012-018-019-230800-
NORTH CENTRAL WISCONSIN

CITY           SKY/WX    TMP DP  RH WIND       PRES   REMARKS
IRONWOOD       LGT SNOW  32  31  96 N6        29.74R FOG
MANITOWISH WTR NOT AVBL
ARBOR VITAE    NOT AVBL
EAGLE RIVER    NOT AVBL
LAND O LAKES   NOT AVBL
RHINELANDER    CLOUDY    35  34  96 N8        29.62R
PHILLIPS       FLURRIES  33  32  99 N7        29.68R
ANTIGO         NOT AVBL
TOMAHAWK       NOT AVBL
MERRILL        NOT AVBL
$$

WIZ013-073-230800-
NORTHEAST WISCONSIN

CITY           SKY/WX    TMP DP  RH WIND       PRES   REMARKS
IRON MOUNTAIN  CLOUDY    37  32  82 N15       29.60R
MARINETTE      CLEAR     39  37  92 N6        29.58R
$$

WIZ017-030-035>037-045-230800-
CENTRAL WISCONSIN

CITY           SKY/WX    TMP DP  RH WIND       PRES   REMARKS
MEDFORD        NOT AVBL
WAUSAU         CLOUDY    40  39  97 N8        29.59R
MOSINEE        NOT AVBL
MARSHFIELD     CLOUDY    42  39  89 NW14      29.62R
WISC RAPIDS    MOCLDY    44  41  89 NW10      29.63R
STEVENS POINT  NOT AVBL
WAUPACA        NOT AVBL
SHAWANO        CLEAR     39  36  91 CALM      29.57S
CLINTONVILLE   NOT AVBL
WAUTOMA        CLEAR     46  41  82 W10         N/A
$$

WIZ038-039-048-051-230800-
FOX VALLEY

CITY           SKY/WX    TMP DP  RH WIND       PRES   REMARKS
NWS GREEN BAY  CLEAR     39  38  96 N3        29.57R
APPLETON       NOT AVBL
OSHKOSH        CLEAR     47  37  68 W8        29.58R
FOND DU LAC    CLEAR     47  37  68 W9        29.60R
$$

WIZ022-050-052-230800-
EAST CENTRAL WISCONSIN

CITY           SKY/WX    TMP DP  RH WIND       PRES   REMARKS
EPHRAIM        NOT AVBL
WASHINGTON ISL NOT AVBL
STURGEON BAY   FOG       37  37 100 N9        29.57R VSB 1
MANITOWOC      NOT AVBL
SHEBOYGAN      CLEAR     50  41  71 W10       29.56R
$$

LMZ563-521-522-541>543-230800-
LAKESHORE

STATION/POSITION TIME  TEMP    WIND        PRES    VSBY  WAVE
                       AIR SEA DIR/SP/G                  HT/PER
                 (UTC) (F)     (DEG/KT/KT) (MB)    (MI)  (FT/S)
SHEBOYGAN LKSHOR 0600   52     260/  7/  8  999.9R
KEWAUNEE LKSHORE 0624   37      CALM  /  4 1000.0
NORTHPORT PIER   0640   35     310/ 10/ 12 1001.4R
SISTER BAY LKSHO 0550   38      10/ 17/ 23   N/A
CHAMBERS ISLAND  0640   35     310/  6/  9 1001.0R
MENOMINEE LKSHOR 0624   39     310/ 10/ 12 1000.4
$$




USA.gov is the U.S. government's official web portal to all federal, state and local government web resources and services.